Weather in Mahikeng

South Africa     25°52′18″S   25°36′23″E
temp.,
°C
wind,
m/s
gust,
m/s
humid.,
%
clouds,
%
prec.,
mm/h
press.,
hPa
HPBL,
m
23 october, sat
sat2323:00+17ssw12210 0.0 101324
02:00+16ese12220 0.0 101113
05:00+15nne11230 0.0 101211
08:00+22nw35140 0.0 1012413
11:00+29wnw61170 0.0 10102330
14:00+31w91260 0.0 10072972
17:00+29w91070 0.0 10082716
20:00+22wsw612160 0.0 1013502
24 october, sun
sun2423:00+18s813310 0.0 1016554
02:00+13sse712530 0.0 1016504
05:00+12sse612530 0.0 1017331
08:00+18se56320 0.0 1016459
11:00+26wnw01134 0.0 10151486
14:00+29w4793 0.0 10112523
17:00+29wsw56895 0.0 10102530
20:00+24ssw4714100 0.0 1013166
25 october, mon
mon2523:00+20ese472360 0.0 1016141
02:00+18ne914620 0.0 1015752
05:00+14ne1017755 0.0 1016640
08:00+16ne91372100 0.6 1020859
11:00+21nne8115251 0.4 10171199
14:00+27nne8113644 0.6 10122133
17:00+18wnw101488100 12.4 1014800
20:00+18ne9168290 17.6 1014631
26 october, tue
tue2623:00+17ne713790 0.1 1015641
02:00+15ne6128616 0.2 1015496
05:00+15ne7118792 0.0 1016490
08:00+16ne81181100 0.0 1018637
11:00+21nne78584 0.0 1017928
14:00+26n67434 0.0 10131656
17:00+27nne463895 0.0 10121645
20:00+24ene611485 0.0 1012375
27 october, wed
wed2723:00+23ne71449100 0.0 1013590
02:00+21ne7146397 0.1 1013552
05:00+19ne7157125 0.0 1015543
08:00+22nne81159100 0.0 1016682
11:00+28n81041100 0.0 10151671
14:00+30n8832100 0.0 10122647
17:00+29n7829100 0.0 10111966
20:00+21ssw5663100 0.1 1017343